Tracking 26492 objects as of 8-Dec-2022
HD Live streaming from Space Station
objects crossing your sky now

KYOKKO 1 (EXOS A)

Track KYOKKO 1 (EXOS A) now!
10-day predictions
KYOKKO 1 (EXOS A) is classified as:


NORAD ID: 10664
Int'l Code: 1978-014A
Perigee: 642.8 km
Apogee: 3,953.7 km
Inclination: 65.4 °
Period: 133.9 minutes
Semi major axis: 8669 km
RCS: 1.0778 m2 (large)
Launch date: February 4, 1978
Source: Japan (JPN)
Launch site: KAGOSHIMA SPACE CENTER UNIVERSITY OF TOKYO (KSCUT)
aabbcc
Your satellite tracking list
Your tracking list is empty




NASA's NSSDC Master Catalog

Two Line Element Set (TLE):
1 10664U 78014A   22341.56048916 -.00000006  00000-0  39644-4 0  9995
2 10664  65.3700  92.8583 1909607 327.0017  22.4659 10.75548021744261
Source of the keplerian elements: AFSPC